SCP
-0 0 -0 -0 -0 0 -0 -0 -0 -0 -0 -0 0 -0 -0 0 -0 0 0 0 0 0 0 -0 -0 -0 -0 -0 -0 0 0 0 0 0 0 0 0 0 0 0 0 0 0 0 0 0 0 0 0
0 0 0 0 0 0 0 -0 0 -0 0 0 -0 -0 -0 -0 -0 -0 0 0 -0 0 0 -0 -0 -0 -0 -0 -0 -0 -0 0 0 0 0 0 0 0 0 0 0 0 0 0 0 0 0 0 0
0 0 0 0 0 -0 -0 -0 -0 -0 -0 0 -0 -0 0 0 0 -0 -0 -0 -0 -0 -0 -0 -0 -0 -0 -0 -0 0 0 0 0 0 0 0 0 0 0 0 0 0 0 0 0 0 0 0 0
0 0 -0 0 0 0 0 0 0 -0 0 0 0 0 0 0 0 -0 -0 -0 -0 0 0 -0 -0 -0 -0 -0 0 0 0 0 0 0 0 0 0 0 0 0 0 0 0 0 0 0 0 0 0
0 0 -0 0 0 0 0 0 -0 -0 -0 0 -0 0 0 0 -0 -0 -0 0 0 0 0 0 -0 0 0 0 0 0 0 0 0 0 0 0 0 0 0 0 0 0 0 0 0 0 0 0 0
0 0 -0 -0 0 -0 -0 -0 -0 -0 -0 -0 0 0 0 0 -0 -0 0 0 0 0 0 0 0 0 0 0 0 0 0 0 0 0 0 0 0 0 0 0 0 0 0 0 0 0 0 0 0
0 0 -0 -0 -0 -0 -0 0 0 0 -0 0 0 0 0 0 0 0 0 0 0 0 0 0 0 0 0 0 0 0 0 0 0 0 0 0 0 0 0 0 0 0 0 0 0 0 0 0 0
0 -0 -0 -0 -0 -0 -0 -0 0 0 0 0 0 0 0 0 0 0 0 0 0 0 0 0 0 0 0 0 0 0 0 0 0 0 0 0 0 0 0 0 0 0 0 0 0 0 0 0 0
0 -0 -0 -0 0 -0 0 0 0 0 0 0 0 0 0 0 0 0 0 0 0 0 0 0 0 0 0 0 0 0 0 0 0 0 0 0 0 0 0 0 0 0 0 0 0 0 0 0 0
0 0 -0 0 0 0 0 0 0 0 0 0 -0 -0 0 0 0 0 0 0 0 0 0 0 0 0 0 0 0 0 0 0 0 0 0 0 0 0 0 0 0 0 0 0 0 0 0 0 0
-0 -0 -0 -0 0 0 0 0 0 0 0 0 -0 0 0 0 0 0 0 0 0 0 0 0 0 0 0 0 0 0 0 0 0 0 0 0 0 0 0 0 0 0 0 0 0 0 0 0 0
0 0 0 0 0 0 0 0 0 0 0 0 0 0 0 0 0 0 0 0 0 0 0 0 0 0 -0 -0 0 -0 0 0 0 0 0 0 0 0 0 0 0 0 0 0 0 0 0 0 0
-0 0 0 0 0 0 0 0 0 0 0 0 0 0 0 0 0 0 0 0 0 0 0 0 0 -0 -0 -0 -0 0 0 0 0 0 0 0 0 0 0 0 0 0 0 0 0 0 0 0 0
0 -0 0 0 0 0 0 0 0 0 0 0 0 0 0 0 0 0 0 0 0 0 0 0 -0 -0 -0 -0 -0 0 0 0 0 0 0 0 -0 -0 0 0 0 0 0 0 0 0 0 0 0
0 0 0 0 0 0 0 0 0 0 0 0 0 0 0 0 0 -0 -0 0 0 -0 0 0 -0 -0 -0 -0 0 0 0 0 0 0 0 0 0 0 0 0 0 0 0 0 0 0 0 0 0
0 0 0 0 0 0 0 0 0 0 0 0 0 0 0 0 -0 -0 0 0 0 0 0 0 0 0 -0 0 0 0 0 0 0 0 0 0 0 0 0 0 0 0 0 0 0 0 0 0 0
0 0 0 0 0 0 0 0 0 0 0 0 0 0 0 0 -0 -0 -0 0 0 0 0 0 0 0 0 0 0 0 0 0 0 0 0 0 0 0 0 0 0 0 0 0 0 0 0 0 0
0 0 0 0 0 0 0 0 0 0 0 0 0 0 0 -0 -0 -0 0 0 0 0 0 0 0 0 0 0 0 0 0 0 0 0 0 0 0 0 0 0 0 0 0 0 0 0 0 0 0
0 0 0 0 0 0 0 0 0 0 0 0 0 0 -0 0 -0 -0 0 0 0 0 0 0 0 0 0 0 0 0 0 0 0 0 0 0 0 0 0 0 0 0 0 0 0 0 0 0 0
0 0 0 0 0 0 0 0 0 0 0 0 0 0 0 0 -0 -0 0 0 -0 0 0 0 0 0 0 0 0 0 0 0 0 0 0 0 0 0 0 0 0 0 0 0 0 0 0 0 0
0 0 0 0 0 0 0 0 0 0 0 0 -0 -0 0 0 0 0 0 0 0 0 0 0 0 0 0 0 0 0 0 0 0 0 0 0 0 0 0 0 0 0 0 0 0 0 0 0 0
0 0 0 0 0 0 0 0 0 0 0 0 0 -0 0 0 0 0 0 0 0 0 0 0 0 0 0 0 0 0 0 0 0 0 0 0 0 0 0 0 0 0 0 0 0 0 0 0 0
0 0 0 0 0 0 0 0 0 0 0 0 0 0 0 0 0 0 0 0 0 0 0 0 0 0 0 0 0 0 0 0 0 0 0 0 0 0 0 0 0 -0 -0 0 -0 0 0 0 0
0 0 0 0 0 0 0 0 0 0 0 0 0 0 0 0 0 0 0 0 0 0 0 0 0 0 0 0 0 0 0 0 0 0 0 0 0 0 0 0 0 -0 -0 -0 -0 0 0 0 0
0 0 0 0 0 0 0 0 0 0 0 0 0 0 0 0 0 0 0 0 0 0 0 0 0 0 0 0 0 0 0 0 0 0 0 0 0 0 0 0 0 0 -0 -0 -0 0 0 0 0
0 0 0 0 0 0 0 0 0 0 0 0 0 0 0 0 0 0 0 0 0 0 0 0 0 0 0 0 0 0 0 0 0 0 0 0 0 0 0 0 0 0 -0 -0 -0 0 0 0 0
0 0 0 0 0 0 0 0 0 0 0 0 0 0 0 0 0 0 0 0 0 0 0 0 0 0 0 0 0 0 0 0 0 0 0 0 0 0 0 0 0 0 -0 -0 -0 0 -0 0 0
0 0 0 0 0 0 0 0 0 0 0 0 0 0 0 0 0 0 0 0 0 0 0 0 0 0 0 0 0 0 0 0 0 0 0 0 0 0 0 0 0 0 -0 -0 -0 0 -0 -0 0
0 0 0 0 0 0 0 0 0 0 0 0 0 0 0 0 0 0 0 0 0 0 0 0 0 0 0 0 0 0 0 0 0 0 0 0 0 0 0 -0 0 0 -0 0 0 0 0 -0 0
0 0 0 0 0 0 0 0 0 0 0 0 0 0 0 0 0 0 0 0 0 0 0 0 0 0 0 0 0 0 0 0 0 0 0 0 0 0 0 0 0 -0 -0 -0 -0 0 0 0 0
Wind_Speed_500mb
17 13 3 3 8 9 6 5 7 10 6 5 11 11 16 14 8 8 21 18 16 16 16 16 15 17 15 16 18 18 19 18 16 12 10 9 8 8 7 6 4 3 3 2 6 7 5 8 10
15 8 8 9 9 8 6 8 17 21 25 30 26 16 19 11 17 22 25 19 18 19 17 18 18 19 19 18 18 19 17 16 16 15 13 10 7 6 4 5 4 3 6 11 5 11 11 12 12
4 11 7 8 7 7 7 25 24 16 10 8 9 17 9 8 19 16 26 21 19 16 16 17 19 19 20 20 21 20 17 16 15 15 13 11 8 7 5 3 2 2 5 7 6 11 14 15 16
2 7 12 9 9 6 6 11 15 6 15 18 17 13 15 15 10 29 22 21 18 14 14 15 15 18 19 18 19 19 19 19 16 17 16 14 12 10 9 8 6 5 2 2 4 12 16 16 17
6 8 10 8 7 6 6 3 1 9 11 7 3 8 12 19 24 21 21 17 11 12 14 15 17 18 20 20 20 20 20 20 21 22 20 17 15 14 13 12 11 11 10 8 6 5 12 17 18
7 6 10 5 5 9 6 8 29 34 38 30 26 17 12 26 22 23 20 18 20 19 19 20 21 20 18 16 14 13 13 13 12 13 15 19 22 21 19 17 17 16 15 17 15 14 12 13 17
12 9 3 5 3 5 11 19 9 16 25 14 32 11 24 29 28 25 25 22 15 19 18 19 17 17 17 18 19 18 18 18 19 18 19 22 25 27 25 23 24 24 25 21 23 23 23 22 21
14 11 7 3 8 2 22 10 17 16 6 16 26 12 19 45 36 37 26 17 12 15 16 18 20 22 22 24 25 25 24 25 23 21 22 24 26 32 31 30 28 30 31 29 30 29 27 28 29
12 9 5 10 11 7 22 10 8 8 13 3 1 20 44 47 44 36 30 28 21 17 14 11 15 21 25 30 31 32 33 32 30 30 29 28 30 32 35 37 34 32 32 34 33 32 33 34 35
8 8 16 9 8 10 16 13 21 13 17 8 25 35 42 49 39 34 31 28 24 21 16 13 18 25 29 34 37 41 42 41 38 34 30 30 31 33 34 36 41 41 38 35 37 36 36 33 34
6 6 8 8 13 37 17 15 11 22 11 14 36 57 51 44 38 35 30 25 20 16 15 14 20 28 37 43 47 48 45 38 34 32 30 28 25 26 32 37 42 44 42 38 38 37 34 33 36
11 25 16 21 16 17 11 24 14 5 3 30 48 50 52 47 40 32 29 19 15 12 17 20 25 35 46 51 47 39 29 25 24 21 18 22 29 36 43 47 46 45 43 44 40 42 40 33 35
11 10 26 33 30 30 22 19 11 8 23 40 50 52 46 40 36 29 22 16 12 8 13 17 26 41 51 52 43 33 25 23 21 21 24 32 38 44 46 37 33 32 33 31 34 38 44 41 41
17 33 22 20 22 15 17 12 6 8 26 36 40 43 39 38 37 32 23 16 5 3 13 22 32 46 58 54 43 36 29 22 23 24 30 39 46 44 35 36 32 31 30 30 31 30 35 42 45
25 13 11 10 7 10 13 10 7 23 26 28 25 34 32 26 24 14 20 13 6 6 23 28 33 47 55 54 42 31 25 25 26 30 34 37 41 33 36 36 34 34 33 31 31 31 30 33 41
9 9 6 1 4 5 10 2 12 21 23 19 15 22 26 25 22 28 24 17 4 4 19 24 34 47 48 49 39 32 28 28 27 26 28 32 29 32 32 34 32 32 38 35 31 31 30 29 32
6 3 4 5 4 8 4 5 18 22 17 19 15 18 27 30 34 28 20 18 6 6 7 20 31 38 40 44 33 26 28 29 30 26 27 25 20 24 30 30 32 36 39 38 35 31 31 32 33
5 9 10 7 7 14 12 11 18 18 16 22 23 23 23 35 39 29 30 27 18 13 12 21 30 38 39 43 33 24 27 29 30 23 19 22 23 26 29 30 32 37 37 38 39 37 29 32 33
13 13 13 4 8 12 18 18 15 3 18 30 35 26 23 32 36 33 35 30 24 19 19 22 28 34 36 44 34 25 28 26 24 24 24 27 25 28 30 32 35 36 38 42 44 38 30 24 25
14 18 7 6 9 13 17 16 13 19 21 10 41 42 28 27 36 36 32 34 25 28 22 26 30 32 37 38 31 33 33 32 30 25 23 27 26 27 28 32 36 37 38 36 40 31 29 24 18
7 12 11 13 15 12 11 7 4 3 3 3 15 34 34 30 31 38 34 21 26 31 27 29 30 34 37 34 28 26 25 31 32 24 21 24 24 24 28 28 32 34 33 38 39 34 27 25 22
4 1 25 32 8 7 1 3 3 2 5 5 12 21 32 27 23 33 38 29 25 30 32 32 32 32 38 36 26 27 31 36 38 37 30 26 23 26 28 24 29 28 31 34 35 36 32 30 30
6 12 22 10 12 9 13 8 7 1 9 8 14 28 30 25 24 31 33 29 28 32 34 36 30 33 37 31 22 26 31 36 38 38 28 23 24 26 25 26 26 22 28 28 34 35 32 32 32
24 25 16 10 5 7 6 6 8 5 6 10 15 21 31 35 32 27 30 37 35 35 34 31 31 34 36 28 22 28 35 39 42 36 29 26 25 25 26 23 22 21 25 30 33 35 30 30 27
13 9 6 5 7 6 7 6 10 7 8 11 23 21 20 27 26 20 27 25 30 31 34 27 28 33 36 28 21 27 36 41 41 33 28 29 29 27 28 16 19 19 23 29 30 32 26 25 29
5 10 9 8 6 4 7 3 7 10 7 10 12 12 13 18 24 27 30 29 31 32 33 29 25 33 35 30 21 28 35 37 34 27 27 28 30 31 16 16 17 19 24 23 24 27 28 27 34
3 10 6 13 6 6 4 5 11 12 8 8 13 12 14 19 29 33 28 27 38 29 30 28 26 29 34 28 24 26 31 30 20 22 25 25 25 16 12 14 14 18 21 22 24 24 27 27 31
12 8 2 7 7 3 6 5 6 14 14 12 14 19 27 27 27 26 31 37 39 29 32 30 28 28 33 28 24 25 24 20 15 19 21 25 26 24 20 13 13 14 21 21 27 20 22 26 33
10 6 12 11 6 8 5 6 8 14 13 18 38 41 42 36 29 28 29 32 33 38 36 35 33 28 34 30 25 27 17 11 14 16 20 20 23 22 30 20 13 12 17 19 23 21 18 20 22
4 5 7 8 4 4 6 4 19 20 34 47 47 56 57 43 32 25 35 39 36 39 40 44 40 33 33 31 29 27 19 15 20 18 23 22 17 21 20 26 14 16 13 15 18 24 18 14 9
Wind_Direction_500mb
119 131 5 150 61 74 65 330 95 94 53 35 116 54 94 48 20 106 131 128 109 93 76 66 69 69 62 55 54 55 50 49 48 47 50 59 67 82 100 113 120 109 102 160 155 146 174 197 193
109 41 62 76 76 65 12 328 75 72 109 92 75 71 47 70 59 100 117 109 109 94 77 71 63 57 52 49 54 57 54 48 44 40 34 33 34 48 65 82 96 135 149 129 174 180 188 196 194
47 13 56 82 87 105 89 66 94 68 49 73 93 60 58 34 90 122 113 107 96 93 85 72 69 69 68 63 57 52 45 33 22 14 14 11 5 7 2 23 104 139 181 204 176 195 200 205 213
98 33 62 75 91 37 76 36 3 308 41 50 102 66 71 63 61 126 110 106 99 97 90 77 72 68 68 65 61 55 44 33 20 8 1 354 351 349 333 323 317 309 319 306 206 204 213 210 209
62 54 60 65 96 120 156 310 170 80 94 34 64 93 72 76 120 121 125 115 112 106 97 97 84 77 73 70 68 64 61 54 42 30 16 358 345 322 318 316 314 307 298 293 287 240 230 232 227
54 70 56 66 119 135 90 109 105 97 108 99 98 94 89 119 136 126 119 114 107 98 91 85 85 81 81 79 69 57 45 35 25 24 14 4 356 344 332 318 304 285 279 271 264 256 239 242 244
118 78 103 84 21 130 133 129 79 105 118 92 136 113 143 152 150 129 129 122 112 100 91 78 66 55 39 26 17 5 1 356 349 346 351 350 345 340 334 315 309 301 284 269 259 258 253 245 253
112 89 116 181 187 77 138 105 113 100 95 131 146 171 163 156 152 145 142 123 115 98 74 60 46 34 20 8 1 354 340 338 332 324 332 333 332 327 325 324 313 304 298 290 282 266 261 258 253
116 68 183 207 145 152 140 124 122 147 151 92 281 153 156 149 153 151 144 132 122 100 76 60 29 12 360 352 342 334 326 321 318 315 316 317 317 321 320 319 318 315 299 294 287 279 271 272 268
70 109 210 142 146 138 130 121 142 151 155 109 124 137 151 152 155 152 141 123 113 99 75 32 10 1 349 340 334 328 327 323 320 314 313 316 318 318 319 317 312 307 299 290 286 283 276 279 275
109 127 62 43 125 135 130 120 147 144 182 164 146 148 155 157 157 150 131 119 108 65 29 13 0 350 342 334 329 323 322 322 318 313 314 320 321 321 317 312 308 305 300 287 273 270 270 274 273
78 46 64 114 101 96 102 118 112 25 23 175 157 158 163 165 161 155 140 131 85 51 21 2 351 345 342 339 335 339 336 339 343 345 345 328 323 323 321 319 314 308 300 290 280 266 259 259 268
87 113 65 93 96 96 115 82 88 82 141 162 163 169 171 168 167 168 148 127 104 34 2 355 352 355 354 353 349 349 346 338 334 337 330 332 334 334 334 338 338 336 329 313 290 273 258 255 258
106 99 100 83 91 108 108 126 50 73 147 154 165 173 171 166 160 162 163 140 162 64 11 358 358 356 2 358 351 342 343 338 337 334 333 334 336 339 342 341 342 343 338 334 322 297 274 256 251
124 82 89 80 86 123 96 47 71 152 162 156 143 156 153 146 156 187 173 187 179 46 25 3 3 2 358 355 354 346 333 326 326 328 328 333 337 343 346 336 335 340 344 336 324 314 292 275 263
76 71 135 133 150 158 28 35 128 154 159 146 134 161 170 182 165 192 207 212 175 355 30 11 1 358 354 355 354 356 355 349 341 331 336 338 341 342 338 339 342 346 348 339 328 314 301 284 274
6 169 81 49 8 111 59 118 155 180 155 116 130 185 189 192 211 215 232 226 241 273 341 353 1 354 353 356 350 354 350 344 340 329 339 352 346 337 343 347 350 345 346 348 335 326 306 292 276
157 136 74 116 8 54 79 85 157 185 154 148 180 182 211 227 219 220 244 226 228 247 288 339 347 345 349 351 347 342 339 334 338 334 324 336 332 337 345 349 343 340 340 339 332 320 312 300 287
106 83 99 80 126 82 86 70 36 234 221 172 196 191 219 227 233 248 252 231 232 255 279 320 337 338 342 346 349 343 340 340 334 329 328 330 328 332 338 340 341 341 338 339 334 323 309 313 291
102 113 92 68 67 88 99 74 58 55 21 145 194 215 236 258 245 258 255 231 240 260 291 316 329 333 339 344 346 349 351 347 338 330 323 321 321 324 331 334 340 341 342 349 348 328 319 309 314
130 142 185 150 104 41 110 106 133 195 74 52 231 236 244 264 259 253 239 233 250 258 288 309 322 326 335 341 346 349 356 359 354 341 328 326 320 329 327 328 335 345 351 350 351 351 337 313 308
304 180 139 140 124 152 207 174 201 227 281 239 240 236 234 259 259 252 247 259 247 268 281 302 309 317 329 339 345 348 351 351 351 347 337 335 337 335 328 330 338 348 352 353 357 351 345 326 308
198 104 130 101 82 108 359 77 264 328 321 322 242 229 230 241 266 259 258 271 258 268 279 288 296 314 327 335 336 340 344 337 336 339 343 337 331 329 337 335 337 346 349 359 356 351 341 330 321
107 88 57 59 92 51 296 115 304 295 288 310 310 263 248 246 284 262 253 258 262 270 275 287 310 316 329 328 327 332 331 328 326 325 331 338 331 330 335 333 332 332 342 349 348 343 337 338 338
87 63 34 343 11 225 281 76 231 266 243 248 288 293 269 253 260 264 271 277 262 279 277 285 315 329 325 319 315 330 324 326 325 319 322 334 336 334 340 337 336 342 344 343 343 348 356 6 352
219 146 156 250 191 235 342 24 272 253 278 309 323 328 307 258 259 272 291 284 274 282 280 287 314 328 318 318 307 317 318 324 327 326 322 328 325 325 333 339 338 344 345 346 346 355 356 335 354
337 52 158 106 31 81 281 278 341 3 342 318 342 336 313 290 282 277 275 275 270 288 282 286 300 317 316 310 295 316 323 330 345 1 356 349 337 348 348 338 346 355 357 353 347 353 352 1 13
91 145 71 25 131 137 329 327 259 339 327 324 303 315 319 302 299 289 290 296 284 287 276 279 289 309 314 296 289 309 325 332 346 7 17 17 21 16 352 331 333 352 358 3 356 341 345 1 12
348 29 58 109 99 144 158 273 328 297 331 342 346 342 332 315 307 306 309 302 292 273 280 287 286 298 309 293 282 295 308 330 331 347 334 357 3 359 352 306 291 325 352 346 349 351 340 332 354
66 95 107 113 190 78 121 244 346 354 38 36 22 18 19 1 352 354 336 318 303 282 287 288 285 285 306 287 277 289 280 307 319 321 320 319 336 358 356 5 320 308 315 326 348 356 358 347 21
Wind_Speed_850mb
17 13 3 3 8 9 6 5 7 10 6 5 11 11 16 14 8 8 21 18 16 16 16 16 15 17 15 16 18 18 19 18 16 12 10 9 8 8 7 6 4 3 3 2 6 7 5 8 10
15 8 8 9 9 8 6 8 17 21 25 30 26 16 19 11 17 22 25 19 18 19 17 18 18 19 19 18 18 19 17 16 16 15 13 10 7 6 4 5 4 3 6 11 5 11 11 12 12
4 11 7 8 7 7 7 25 24 16 10 8 9 17 9 8 19 16 26 21 19 16 16 17 19 19 20 20 21 20 17 16 15 15 13 11 8 7 5 3 2 2 5 7 6 11 14 15 16
2 7 12 9 9 6 6 11 15 6 15 18 17 13 15 15 10 29 22 21 18 14 14 15 15 18 19 18 19 19 19 19 16 17 16 14 12 10 9 8 6 5 2 2 4 12 16 16 17
6 8 10 8 7 6 6 3 1 9 11 7 3 8 12 19 24 21 21 17 11 12 14 15 17 18 20 20 20 20 20 20 21 22 20 17 15 14 13 12 11 11 10 8 6 5 12 17 18
7 6 10 5 5 9 6 8 29 34 38 30 26 17 12 26 22 23 20 18 20 19 19 20 21 20 18 16 14 13 13 13 12 13 15 19 22 21 19 17 17 16 15 17 15 14 12 13 17
12 9 3 5 3 5 11 19 9 16 25 14 32 11 24 29 28 25 25 22 15 19 18 19 17 17 17 18 19 18 18 18 19 18 19 22 25 27 25 23 24 24 25 21 23 23 23 22 21
14 11 7 3 8 2 22 10 17 16 6 16 26 12 19 45 36 37 26 17 12 15 16 18 20 22 22 24 25 25 24 25 23 21 22 24 26 32 31 30 28 30 31 29 30 29 27 28 29
12 9 5 10 11 7 22 10 8 8 13 3 1 20 44 47 44 36 30 28 21 17 14 11 15 21 25 30 31 32 33 32 30 30 29 28 30 32 35 37 34 32 32 34 33 32 33 34 35
8 8 16 9 8 10 16 13 21 13 17 8 25 35 42 49 39 34 31 28 24 21 16 13 18 25 29 34 37 41 42 41 38 34 30 30 31 33 34 36 41 41 38 35 37 36 36 33 34
6 6 8 8 13 37 17 15 11 22 11 14 36 57 51 44 38 35 30 25 20 16 15 14 20 28 37 43 47 48 45 38 34 32 30 28 25 26 32 37 42 44 42 38 38 37 34 33 36
11 25 16 21 16 17 11 24 14 5 3 30 48 50 52 47 40 32 29 19 15 12 17 20 25 35 46 51 47 39 29 25 24 21 18 22 29 36 43 47 46 45 43 44 40 42 40 33 35
11 10 26 33 30 30 22 19 11 8 23 40 50 52 46 40 36 29 22 16 12 8 13 17 26 41 51 52 43 33 25 23 21 21 24 32 38 44 46 37 33 32 33 31 34 38 44 41 41
17 33 22 20 22 15 17 12 6 8 26 36 40 43 39 38 37 32 23 16 5 3 13 22 32 46 58 54 43 36 29 22 23 24 30 39 46 44 35 36 32 31 30 30 31 30 35 42 45
25 13 11 10 7 10 13 10 7 23 26 28 25 34 32 26 24 14 20 13 6 6 23 28 33 47 55 54 42 31 25 25 26 30 34 37 41 33 36 36 34 34 33 31 31 31 30 33 41
9 9 6 1 4 5 10 2 12 21 23 19 15 22 26 25 22 28 24 17 4 4 19 24 34 47 48 49 39 32 28 28 27 26 28 32 29 32 32 34 32 32 38 35 31 31 30 29 32
6 3 4 5 4 8 4 5 18 22 17 19 15 18 27 30 34 28 20 18 6 6 7 20 31 38 40 44 33 26 28 29 30 26 27 25 20 24 30 30 32 36 39 38 35 31 31 32 33
5 9 10 7 7 14 12 11 18 18 16 22 23 23 23 35 39 29 30 27 18 13 12 21 30 38 39 43 33 24 27 29 30 23 19 22 23 26 29 30 32 37 37 38 39 37 29 32 33
13 13 13 4 8 12 18 18 15 3 18 30 35 26 23 32 36 33 35 30 24 19 19 22 28 34 36 44 34 25 28 26 24 24 24 27 25 28 30 32 35 36 38 42 44 38 30 24 25
14 18 7 6 9 13 17 16 13 19 21 10 41 42 28 27 36 36 32 34 25 28 22 26 30 32 37 38 31 33 33 32 30 25 23 27 26 27 28 32 36 37 38 36 40 31 29 24 18
7 12 11 13 15 12 11 7 4 3 3 3 15 34 34 30 31 38 34 21 26 31 27 29 30 34 37 34 28 26 25 31 32 24 21 24 24 24 28 28 32 34 33 38 39 34 27 25 22
4 1 25 32 8 7 1 3 3 2 5 5 12 21 32 27 23 33 38 29 25 30 32 32 32 32 38 36 26 27 31 36 38 37 30 26 23 26 28 24 29 28 31 34 35 36 32 30 30
6 12 22 10 12 9 13 8 7 1 9 8 14 28 30 25 24 31 33 29 28 32 34 36 30 33 37 31 22 26 31 36 38 38 28 23 24 26 25 26 26 22 28 28 34 35 32 32 32
24 25 16 10 5 7 6 6 8 5 6 10 15 21 31 35 32 27 30 37 35 35 34 31 31 34 36 28 22 28 35 39 42 36 29 26 25 25 26 23 22 21 25 30 33 35 30 30 27
13 9 6 5 7 6 7 6 10 7 8 11 23 21 20 27 26 20 27 25 30 31 34 27 28 33 36 28 21 27 36 41 41 33 28 29 29 27 28 16 19 19 23 29 30 32 26 25 29
5 10 9 8 6 4 7 3 7 10 7 10 12 12 13 18 24 27 30 29 31 32 33 29 25 33 35 30 21 28 35 37 34 27 27 28 30 31 16 16 17 19 24 23 24 27 28 27 34
3 10 6 13 6 6 4 5 11 12 8 8 13 12 14 19 29 33 28 27 38 29 30 28 26 29 34 28 24 26 31 30 20 22 25 25 25 16 12 14 14 18 21 22 24 24 27 27 31
12 8 2 7 7 3 6 5 6 14 14 12 14 19 27 27 27 26 31 37 39 29 32 30 28 28 33 28 24 25 24 20 15 19 21 25 26 24 20 13 13 14 21 21 27 20 22 26 33
10 6 12 11 6 8 5 6 8 14 13 18 38 41 42 36 29 28 29 32 33 38 36 35 33 28 34 30 25 27 17 11 14 16 20 20 23 22 30 20 13 12 17 19 23 21 18 20 22
4 5 7 8 4 4 6 4 19 20 34 47 47 56 57 43 32 25 35 39 36 39 40 44 40 33 33 31 29 27 19 15 20 18 23 22 17 21 20 26 14 16 13 15 18 24 18 14 9
Wind_Direction_850mb
119 131 5 150 61 74 65 330 95 94 53 35 116 54 94 48 20 106 131 128 109 93 76 66 69 69 62 55 54 55 50 49 48 47 50 59 67 82 100 113 120 109 102 160 155 146 174 197 193
109 41 62 76 76 65 12 328 75 72 109 92 75 71 47 70 59 100 117 109 109 94 77 71 63 57 52 49 54 57 54 48 44 40 34 33 34 48 65 82 96 135 149 129 174 180 188 196 194
47 13 56 82 87 105 89 66 94 68 49 73 93 60 58 34 90 122 113 107 96 93 85 72 69 69 68 63 57 52 45 33 22 14 14 11 5 7 2 23 104 139 181 204 176 195 200 205 213
98 33 62 75 91 37 76 36 3 308 41 50 102 66 71 63 61 126 110 106 99 97 90 77 72 68 68 65 61 55 44 33 20 8 1 354 351 349 333 323 317 309 319 306 206 204 213 210 209
62 54 60 65 96 120 156 310 170 80 94 34 64 93 72 76 120 121 125 115 112 106 97 97 84 77 73 70 68 64 61 54 42 30 16 358 345 322 318 316 314 307 298 293 287 240 230 232 227
54 70 56 66 119 135 90 109 105 97 108 99 98 94 89 119 136 126 119 114 107 98 91 85 85 81 81 79 69 57 45 35 25 24 14 4 356 344 332 318 304 285 279 271 264 256 239 242 244
118 78 103 84 21 130 133 129 79 105 118 92 136 113 143 152 150 129 129 122 112 100 91 78 66 55 39 26 17 5 1 356 349 346 351 350 345 340 334 315 309 301 284 269 259 258 253 245 253
112 89 116 181 187 77 138 105 113 100 95 131 146 171 163 156 152 145 142 123 115 98 74 60 46 34 20 8 1 354 340 338 332 324 332 333 332 327 325 324 313 304 298 290 282 266 261 258 253
116 68 183 207 145 152 140 124 122 147 151 92 281 153 156 149 153 151 144 132 122 100 76 60 29 12 360 352 342 334 326 321 318 315 316 317 317 321 320 319 318 315 299 294 287 279 271 272 268
70 109 210 142 146 138 130 121 142 151 155 109 124 137 151 152 155 152 141 123 113 99 75 32 10 1 349 340 334 328 327 323 320 314 313 316 318 318 319 317 312 307 299 290 286 283 276 279 275
109 127 62 43 125 135 130 120 147 144 182 164 146 148 155 157 157 150 131 119 108 65 29 13 0 350 342 334 329 323 322 322 318 313 314 320 321 321 317 312 308 305 300 287 273 270 270 274 273
78 46 64 114 101 96 102 118 112 25 23 175 157 158 163 165 161 155 140 131 85 51 21 2 351 345 342 339 335 339 336 339 343 345 345 328 323 323 321 319 314 308 300 290 280 266 259 259 268
87 113 65 93 96 96 115 82 88 82 141 162 163 169 171 168 167 168 148 127 104 34 2 355 352 355 354 353 349 349 346 338 334 337 330 332 334 334 334 338 338 336 329 313 290 273 258 255 258
106 99 100 83 91 108 108 126 50 73 147 154 165 173 171 166 160 162 163 140 162 64 11 358 358 356 2 358 351 342 343 338 337 334 333 334 336 339 342 341 342 343 338 334 322 297 274 256 251
124 82 89 80 86 123 96 47 71 152 162 156 143 156 153 146 156 187 173 187 179 46 25 3 3 2 358 355 354 346 333 326 326 328 328 333 337 343 346 336 335 340 344 336 324 314 292 275 263
76 71 135 133 150 158 28 35 128 154 159 146 134 161 170 182 165 192 207 212 175 355 30 11 1 358 354 355 354 356 355 349 341 331 336 338 341 342 338 339 342 346 348 339 328 314 301 284 274
6 169 81 49 8 111 59 118 155 180 155 116 130 185 189 192 211 215 232 226 241 273 341 353 1 354 353 356 350 354 350 344 340 329 339 352 346 337 343 347 350 345 346 348 335 326 306 292 276
157 136 74 116 8 54 79 85 157 185 154 148 180 182 211 227 219 220 244 226 228 247 288 339 347 345 349 351 347 342 339 334 338 334 324 336 332 337 345 349 343 340 340 339 332 320 312 300 287
106 83 99 80 126 82 86 70 36 234 221 172 196 191 219 227 233 248 252 231 232 255 279 320 337 338 342 346 349 343 340 340 334 329 328 330 328 332 338 340 341 341 338 339 334 323 309 313 291
102 113 92 68 67 88 99 74 58 55 21 145 194 215 236 258 245 258 255 231 240 260 291 316 329 333 339 344 346 349 351 347 338 330 323 321 321 324 331 334 340 341 342 349 348 328 319 309 314
130 142 185 150 104 41 110 106 133 195 74 52 231 236 244 264 259 253 239 233 250 258 288 309 322 326 335 341 346 349 356 359 354 341 328 326 320 329 327 328 335 345 351 350 351 351 337 313 308
304 180 139 140 124 152 207 174 201 227 281 239 240 236 234 259 259 252 247 259 247 268 281 302 309 317 329 339 345 348 351 351 351 347 337 335 337 335 328 330 338 348 352 353 357 351 345 326 308
198 104 130 101 82 108 359 77 264 328 321 322 242 229 230 241 266 259 258 271 258 268 279 288 296 314 327 335 336 340 344 337 336 339 343 337 331 329 337 335 337 346 349 359 356 351 341 330 321
107 88 57 59 92 51 296 115 304 295 288 310 310 263 248 246 284 262 253 258 262 270 275 287 310 316 329 328 327 332 331 328 326 325 331 338 331 330 335 333 332 332 342 349 348 343 337 338 338
87 63 34 343 11 225 281 76 231 266 243 248 288 293 269 253 260 264 271 277 262 279 277 285 315 329 325 319 315 330 324 326 325 319 322 334 336 334 340 337 336 342 344 343 343 348 356 6 352
219 146 156 250 191 235 342 24 272 253 278 309 323 328 307 258 259 272 291 284 274 282 280 287 314 328 318 318 307 317 318 324 327 326 322 328 325 325 333 339 338 344 345 346 346 355 356 335 354
337 52 158 106 31 81 281 278 341 3 342 318 342 336 313 290 282 277 275 275 270 288 282 286 300 317 316 310 295 316 323 330 345 1 356 349 337 348 348 338 346 355 357 353 347 353 352 1 13
91 145 71 25 131 137 329 327 259 339 327 324 303 315 319 302 299 289 290 296 284 287 276 279 289 309 314 296 289 309 325 332 346 7 17 17 21 16 352 331 333 352 358 3 356 341 345 1 12
348 29 58 109 99 144 158 273 328 297 331 342 346 342 332 315 307 306 309 302 292 273 280 287 286 298 309 293 282 295 308 330 331 347 334 357 3 359 352 306 291 325 352 346 349 351 340 332 354
66 95 107 113 190 78 121 244 346 354 38 36 22 18 19 1 352 354 336 318 303 282 287 288 285 285 306 287 277 289 280 307 319 321 320 319 336 358 356 5 320 308 315 326 348 356 358 347 21